Theta_e
309 309 308 309 309 309 309 309 308 308 308 308 308 309 310 311 312 311 312 312 311 310 311 312 314 317 316 311 308 317 325 323 316 317 310 308 304 302 297 298 300 298 300 302 303 303 301
309 308 308 308 308 308 307 307 307 307 307 307 308 307 308 309 310 311 312 312 311 311 311 311 312 316 309 303 320 321 319 317 313 310 309 312 306 306 302 300 298 301 300 300 301 302 301
307 307 307 307 307 306 306 306 306 307 306 306 307 308 307 308 309 311 311 311 311 310 310 309 310 310 303 302 317 317 318 315 316 315 311 311 311 304 305 301 305 303 298 300 301 301 301
305 305 305 305 305 305 306 306 306 306 306 306 306 307 308 308 309 310 311 311 310 310 309 309 309 306 295 310 311 311 313 313 316 315 315 314 309 304 304 306 304 300 299 293 301 302 302
305 305 305 304 304 304 305 305 305 306 306 306 306 307 308 309 309 309 310 310 310 310 309 309 301 302 291 309 304 308 313 310 313 315 316 312 305 300 301 296 294 296 291 292 296 302 301
305 305 305 305 305 305 305 305 306 305 306 306 306 306 307 307 307 308 308 309 309 308 304 305 301 294 298 294 306 310 309 314 309 311 310 302 298 293 293 292 288 291 292 291 293 298 300
305 304 304 305 305 306 306 305 305 305 305 305 305 305 305 306 307 306 304 299 293 293 296 290 290 291 295 300 306 307 314 309 309 306 299 299 291 288 292 296 297 296 294 293 295 300 299
304 304 304 304 304 305 305 305 305 305 305 305 305 305 305 305 306 306 304 295 296 298 290 297 294 294 296 297 292 296 300 304 302 296 303 298 291 296 296 295 294 295 292 291 295 298 297
305 305 305 304 304 304 305 305 305 305 305 305 305 304 304 304 304 301 299 297 302 300 291 292 297 296 296 295 290 292 298 302 300 296 299 296 296 300 297 293 290 290 290 291 291 294 296
305 305 306 305 305 303 304 305 305 305 304 304 304 303 303 303 298 298 295 302 304 304 278 283 289 294 297 297 291 297 298 296 302 296 297 298 303 300 297 294 293 288 294 293 293 291 287
305 305 305 305 305 304 303 304 305 305 304 304 304 302 301 300 295 293 298 302 304 296 261 286 288 299 296 293 294 293 298 297 291 297 298 293 297 297 296 297 298 291 296 294 293 290 289
305 305 306 305 305 305 304 304 304 304 304 304 305 304 302 299 298 300 302 302 298 272 261 284 289 287 288 292 293 295 293 295 295 291 294 297 302 300 298 301 301 301 296 295 293 290 283
306 306 305 305 305 305 304 304 304 304 304 304 304 304 301 302 294 302 300 294 274 262 282 281 282 286 286 285 288 288 290 286 285 283 285 292 296 301 302 297 300 298 292 284 284 282 282
306 306 306 306 305 305 304 304 304 304 304 304 304 304 299 299 299 300 293 279 263 273 278 286 284 286 281 284 285 285 284 285 290 288 285 285 284 294 300 298 295 296 294 286 279 279 283
305 306 306 306 305 305 304 304 304 304 304 304 302 292 293 295 299 296 282 265 266 276 283 282 282 280 280 283 283 282 281 282 286 286 282 285 285 296 299 300 298 294 290 297 289 290 285
305 306 307 306 305 305 304 304 304 304 304 303 289 289 289 296 298 290 277 272 275 286 285 284 277 281 277 280 280 280 280 286 286 288 290 285 281 292 294 297 297 296 298 289 289 280 280
305 305 305 306 305 305 304 304 304 304 303 302 288 282 290 297 294 284 270 272 283 288 287 283 280 279 280 279 281 279 280 284 287 286 288 284 283 283 289 291 289 292 291 293 292 289 282
305 306 305 305 304 304 304 304 304 304 303 295 285 273 292 298 279 280 272 281 287 285 288 285 284 282 280 281 280 280 278 283 289 288 281 285 281 274 281 290 291 294 291 291 284 284 285
304 305 305 305 304 304 304 304 304 303 302 289 277 278 291 290 268 272 277 280 284 283 284 283 282 283 283 280 274 281 282 288 290 287 282 285 277 270 274 283 286 283 285 285 285 285 283
304 305 304 304 304 304 304 304 303 303 303 290 279 271 283 287 285 282 279 275 275 287 285 286 283 284 281 279 280 275 281 286 289 288 291 287 280 275 270 275 280 278 281 283 282 278 280
303 304 304 304 304 304 304 304 304 303 303 289 282 274 279 269 276 278 282 281 279 278 284 285 282 282 280 272 274 277 281 283 287 289 288 285 277 280 280 281 281 281 281 282 280 281 278
303 303 304 304 304 304 303 303 303 303 301 286 278 279 282 280 283 280 280 276 280 281 282 281 282 284 283 279 280 277 281 281 281 286 285 286 276 280 276 281 281 279 282 282 282 283 283
302 302 303 303 303 303 303 303 303 303 298 284 286 287 285 280 279 277 276 280 281 284 284 286 285 284 283 284 287 287 287 286 285 283 281 282 279 277 274 280 280 275 279 281 282 283 283
301 301 302 302 302 302 302 302 303 303 299 289 288 288 283 276 277 278 282 284 282 283 281 285 286 283 286 291 289 288 286 286 285 284 285 279 279 277 273 276 268 279 285 284 282 283 284
299 300 300 301 301 301 301 301 302 302 302 291 292 292 286 281 281 280 282 282 284 285 283 284 286 289 290 286 276 273 269 271 273 281 283 285 280 270 272 270 275 279 281 281 281 280 285
297 298 299 299 299 300 300 300 301 301 301 292 290 292 289 283 282 286 282 283 279 279 280 283 289 291 289 280 274 273 266 270 270 275 283 283 283 277 270 270 267 278 283 287 286 275 285
296 296 297 297 297 298 298 298 299 300 300 297 294 291 286 283 283 285 282 278 283 281 281 283 284 284 288 279 276 273 273 279 273 274 273 272 269 274 273 272 276 283 286 288 275 277 287
295 295 295 295 296 296 297 297 297 297 299 297 293 293 291 285 285 287 287 284 284 283 279 281 282 281 280 278 276 271 273 275 276 279 278 276 272 268 269 272 270 286 285 280 284 288 289
295 295 295 295 295 295 295 296 296 296 297 297 290 296 294 289 285 290 291 291 289 289 285 286 283 284 285 282 281 280 278 279 278 274 282 276 279 276 278 274 284 287 286 289 290 289 290
Wind_Speed
9 9 9 9 10 10 11 12 13 14 15 15 15 15 16 16 15 13 11 9 12 13 12 12 12 11 6 8 15 16 14 17 5 8 9 10 9 6 7 6 6 12 12 10 11 15 9
10 10 10 10 10 11 13 13 14 14 15 16 16 16 16 16 17 14 11 10 11 12 12 12 11 11 6 22 5 18 10 7 6 5 4 7 6 10 6 9 16 6 7 10 10 14 7
11 11 11 10 11 12 13 14 15 15 15 16 17 16 17 17 17 16 12 10 10 12 13 13 12 5 12 25 5 7 11 3 6 6 7 5 5 1 2 6 16 14 16 16 18 8 9
12 12 12 12 12 12 13 13 14 16 17 18 18 18 17 18 16 14 11 11 11 13 14 13 10 5 13 5 11 21 17 20 14 11 14 16 6 4 6 7 4 4 3 9 14 16 7
9 10 11 12 12 12 13 14 14 16 17 17 18 18 18 18 15 12 11 11 13 14 14 12 5 5 12 6 8 16 13 12 12 11 11 13 3 6 4 3 2 6 12 11 13 6 5
12 12 13 12 12 12 12 14 14 16 17 18 18 16 16 13 7 9 11 10 14 11 7 6 6 4 7 8 8 6 12 11 6 7 7 6 4 5 4 7 21 11 14 6 6 1 8
12 12 13 14 14 14 14 15 15 16 16 17 15 12 14 15 11 8 5 5 3 1 4 10 8 7 7 6 2 5 6 14 11 5 7 6 5 17 27 17 5 5 11 14 8 7 7
12 13 13 14 15 14 15 16 14 15 15 15 12 12 15 13 13 8 2 3 3 2 8 15 21 21 26 14 10 16 3 9 13 14 11 6 22 24 5 15 13 11 9 18 6 7 4
12 13 13 14 13 14 14 14 14 14 15 14 10 10 12 11 8 2 2 7 11 14 5 8 17 15 12 9 11 20 3 13 7 16 18 19 24 13 14 12 13 20 22 24 21 4 11
14 14 14 13 12 12 13 14 15 14 14 14 10 9 9 12 1 5 2 7 9 4 3 8 5 7 11 12 10 18 12 8 11 16 19 18 21 15 15 19 17 20 19 19 17 5 13
15 15 15 15 14 12 12 12 14 14 13 13 10 5 7 12 5 5 6 13 11 1 4 4 3 3 5 16 4 11 26 12 19 14 16 32 21 24 23 29 19 19 16 16 12 10 8
17 17 16 15 14 12 11 11 11 13 13 12 10 9 3 1 3 5 12 8 3 8 6 4 9 14 9 1 16 10 4 10 1 17 15 23 16 16 33 25 21 14 13 15 10 8 13
17 18 17 16 14 12 11 10 9 11 12 11 11 10 3 2 2 8 8 2 4 5 4 7 11 12 10 13 9 11 11 5 12 6 14 25 23 18 16 22 21 21 17 10 9 11 18
18 18 17 16 13 11 9 8 7 8 10 10 10 8 4 4 5 5 4 7 6 5 5 15 14 9 8 16 11 17 18 4 4 11 9 11 18 17 17 26 12 21 21 12 11 17 22
20 20 18 14 10 9 8 6 5 6 8 8 9 3 3 4 3 2 6 6 7 4 11 12 10 5 5 12 6 9 12 7 8 15 4 5 11 6 16 17 15 21 16 23 21 17 8
20 20 19 7 6 6 7 6 4 4 7 6 2 3 4 4 3 5 6 3 3 5 10 8 3 6 9 11 9 10 9 6 4 13 7 8 10 6 10 8 11 24 16 13 13 19 21
19 18 15 8 3 3 5 5 3 3 5 4 3 4 4 3 5 5 3 6 4 7 10 6 5 3 3 6 4 3 1 2 2 4 9 10 5 8 12 9 17 8 17 21 11 12 14
17 14 12 9 4 3 4 5 4 2 2 5 2 3 5 3 4 1 1 3 6 6 7 6 3 1 2 7 4 6 5 4 5 4 5 2 4 5 9 13 10 6 4 4 6 14 3
16 14 10 8 5 3 4 5 4 3 4 3 2 2 4 5 2 3 5 4 3 3 4 4 5 3 2 1 3 2 8 4 8 5 6 2 1 8 9 1 6 8 7 10 7 4 5
13 14 11 9 7 5 3 4 5 5 5 4 3 3 3 2 2 1 3 5 4 5 7 5 6 7 3 2 4 5 5 5 4 7 10 8 5 8 7 7 5 9 14 11 4 5 6
12 12 12 8 7 6 4 2 4 6 6 5 3 5 5 2 4 3 2 3 4 5 4 5 4 4 9 5 4 5 5 6 7 6 3 6 6 12 14 15 15 16 17 15 14 11 7
10 9 10 10 11 6 4 1 2 4 8 4 4 2 3 3 3 5 5 4 5 8 5 5 5 13 9 9 12 13 6 2 7 3 4 4 5 7 15 15 15 17 15 14 14 16 16
10 9 8 8 8 8 10 4 3 6 7 2 2 2 3 4 2 2 5 6 7 6 8 8 10 7 10 14 7 12 10 10 14 12 8 8 4 4 10 7 9 10 19 14 13 15 14
8 9 9 7 7 7 7 7 7 4 10 4 3 2 2 5 4 5 5 7 10 11 13 14 5 6 6 4 4 5 10 13 11 16 14 9 9 4 9 7 14 10 11 15 20 21 18
11 9 10 11 8 6 6 6 6 5 0 3 2 2 3 4 6 6 9 10 9 10 11 13 19 16 5 2 3 6 6 7 7 12 17 16 10 3 7 10 13 13 16 12 12 23 19
11 11 11 10 10 9 8 7 7 6 6 2 3 3 3 4 3 5 4 5 8 10 8 8 12 6 4 3 3 4 4 7 6 6 6 10 13 8 3 7 10 14 19 20 18 19 24
11 11 12 12 11 11 11 10 10 9 8 3 3 4 2 4 6 6 7 5 4 4 7 10 6 3 4 4 5 6 8 6 6 6 3 3 1 16 12 9 9 21 21 8 14 19 22
11 11 11 12 12 12 12 12 13 12 10 5 3 4 4 4 9 11 14 12 8 6 10 4 8 5 1 7 4 5 5 7 6 12 8 9 6 5 3 10 18 6 11 14 13 15 17
12 11 11 12 11 12 12 13 13 14 13 9 5 4 4 5 8 4 14 19 19 24 11 7 9 9 2 3 3 4 3 2 3 5 6 9 11 6 10 10 7 1 4 12 10 15 19
Wind_Direction
22 17 10 5 360 353 348 349 344 340 336 333 330 325 321 319 301 294 300 302 309 308 309 312 313 322 306 218 232 272 304 335 339 163 197 210 203 166 199 228 258 244 265 268 256 265 266
23 16 8 4 1 353 345 341 336 333 330 328 324 320 316 314 313 286 289 294 302 305 306 306 312 321 252 250 167 249 285 339 303 320 222 193 220 210 244 222 237 271 257 259 264 271 262
19 10 3 357 351 345 339 335 331 327 325 321 317 315 313 309 303 293 277 278 290 296 300 300 306 297 254 239 291 300 308 290 300 292 301 240 215 254 299 268 254 255 260 273 260 252 264
11 4 357 348 342 340 338 336 332 327 324 321 316 313 308 301 294 282 268 268 273 287 293 293 299 277 254 289 238 265 269 279 281 262 254 259 203 232 205 272 303 218 243 240 249 243 247
3 1 357 355 347 339 337 332 333 332 328 322 317 315 306 295 283 269 267 269 275 283 279 281 290 218 269 272 236 241 232 230 267 278 277 258 188 199 289 197 319 210 242 230 263 222 231
5 360 354 348 344 338 334 332 339 338 333 330 323 321 321 313 300 299 285 293 278 283 281 227 239 305 255 231 221 237 220 211 257 307 293 204 162 196 208 186 216 229 234 246 216 232 209
358 355 352 346 342 337 333 334 341 337 331 331 331 330 327 326 310 329 351 339 23 257 228 209 198 238 307 61 198 243 147 196 222 232 201 191 174 217 216 219 246 283 243 251 238 216 259
339 335 334 335 335 336 339 337 337 334 332 329 327 322 329 319 324 5 57 254 271 90 280 240 250 251 267 314 299 294 257 179 183 209 189 248 221 223 218 229 234 252 270 263 272 262 287
327 325 324 325 329 328 335 334 333 332 334 330 320 318 333 317 325 20 269 260 289 314 267 262 231 239 236 221 239 269 214 208 220 200 207 208 229 207 209 219 216 233 235 244 247 305 283
337 330 320 312 315 322 326 334 332 328 331 333 316 320 348 318 358 336 247 335 358 319 336 268 220 263 213 194 254 229 239 246 202 228 212 237 238 237 216 225 210 235 225 245 256 230 248
329 325 320 316 310 307 316 328 328 330 328 331 320 307 47 43 320 342 337 333 340 34 39 285 294 312 228 182 133 212 218 181 228 208 183 230 224 229 235 239 217 243 236 243 240 222 253
326 320 314 308 306 304 299 312 324 328 323 328 324 291 244 127 329 294 300 295 273 47 267 19 29 348 14 81 265 295 147 227 124 240 247 250 230 228 227 240 229 251 251 254 247 233 243
323 318 312 304 295 293 294 293 317 326 326 327 327 313 288 234 243 262 296 347 48 114 307 38 358 345 25 346 17 3 291 220 206 197 224 245 244 249 277 234 225 223 234 246 245 227 236
327 320 312 299 293 281 279 281 303 327 331 326 327 329 285 213 269 309 11 49 62 281 291 6 354 27 63 6 10 9 358 328 336 295 290 239 242 210 227 230 229 216 217 220 215 224 232
336 329 319 302 281 272 268 267 290 326 329 321 338 333 324 274 241 38 63 53 204 253 359 350 351 20 65 12 18 354 4 35 50 25 285 265 254 196 215 223 212 229 241 234 246 263 275
343 341 337 309 283 260 260 256 270 317 332 335 4 354 297 292 103 55 66 263 248 333 328 326 342 2 353 0 8 20 22 1 34 37 351 359 290 231 251 287 259 228 230 239 229 239 242
348 350 359 1 333 258 252 254 250 297 332 19 34 30 280 11 62 48 134 230 296 321 10 328 316 288 332 349 350 170 259 305 194 10 38 7 310 315 328 207 238 253 230 237 250 224 229
354 356 4 5 357 298 263 254 247 260 4 53 65 30 303 357 48 42 179 241 324 317 325 283 279 317 335 338 318 315 208 222 142 155 64 351 277 295 276 306 324 278 282 275 236 217 215
358 359 6 11 0 328 295 262 232 226 122 100 111 241 314 80 106 300 303 295 266 287 281 310 310 291 63 260 341 327 317 303 177 172 153 174 4 322 343 324 65 40 347 341 312 240 225
356 1 7 5 3 351 307 276 222 204 167 90 75 12 330 15 176 301 290 282 284 280 269 256 281 299 359 331 173 272 297 295 232 207 207 150 197 195 212 275 250 289 298 300 321 280 348
350 359 7 7 1 0 354 257 235 212 177 92 74 247 198 229 293 221 201 260 269 296 270 284 311 277 299 293 312 227 246 287 288 280 196 156 235 222 238 251 261 264 279 275 274 259 262
347 349 357 10 19 7 359 340 272 208 128 81 142 178 346 275 257 187 237 231 227 267 232 278 254 289 312 303 281 300 314 277 248 249 160 208 244 246 257 257 252 261 255 260 267 268 260
346 343 348 357 10 16 22 360 227 178 124 137 264 268 119 254 256 84 228 236 255 292 285 256 281 279 268 262 241 248 254 248 250 256 247 192 216 223 276 262 271 264 253 250 239 241 244
333 343 341 342 351 358 7 12 23 202 172 145 212 126 193 257 196 203 237 252 281 279 278 286 282 283 259 186 230 249 249 265 246 237 217 214 212 204 261 284 254 244 238 239 248 260 263
316 325 328 340 342 342 347 346 351 357 116 151 195 193 234 254 235 261 257 268 280 280 273 270 273 255 205 200 358 318 321 353 268 233 222 215 217 238 233 242 268 296 269 255 244 257 254
295 303 310 314 319 326 327 326 322 318 310 129 213 181 231 310 235 264 297 252 280 282 293 239 273 275 239 160 143 232 227 223 295 307 223 217 222 214 187 238 244 241 243 240 258 267 262
289 291 292 292 299 304 303 304 305 301 295 266 244 161 162 256 250 229 241 215 217 246 278 290 275 335 186 201 230 228 238 217 228 219 224 159 158 212 229 240 263 248 254 264 267 257 257
281 288 289 287 286 288 289 288 289 288 288 279 252 182 184 245 264 246 243 244 262 226 253 282 316 254 193 224 212 226 225 221 224 232 241 228 189 193 202 220 257 201 247 206 226 255 263
278 279 278 279 281 284 285 286 284 281 279 276 262 204 194 228 253 264 248 239 227 242 254 241 249 278 282 298 225 242 247 236 232 242 242 244 208 211 199 213 242 169 264 266 256 252 266